Regional Weather Roundup
Issued by NWS

Home | Current Version | Previous Version | Graphics & Text | Print | Product List | Glossary On
Versions: 1 2 3 4 5 6 7 8 9 10 11 12 13 14 15 16 17 18 19 20 21 22 23 24 25 26 27 28 29 30 31 32 33 34 35 36 37 38 39 40 41 42 43 44 45 46 47 48 49 50
078
ASUS45 KABQ 242110
RWRNM
NEW MEXICO REGIONAL WEATHER ROUNDUP
NATIONAL WEATHER SERVICE ALBUQUERQUE NM
300 PM MDT FRI MAR 24 2017

NOTE: "FAIR" MEANS FEW OR NO CLOUDS BELOW 12,000 FEET AGL WITH NO
       SIGNIFICANT WEATHER OR OBSTRUCTIONS TO VISION.

      THIS PRODUCT IS RELEASED AS TWO VERSIONS.  ONE VERSION NEAR
      THE TOP OF THE HOUR CONTAINING PRELIMINARY DATA FROM ALBUQUERQUE
      AND OTHER STATIONS.  A FINAL VERSION WITH ADDITIONAL DATA IS
      ISSUED ABOUT 10 MINUTES AFTER THE HOUR.

NMZ501-503-504-510>518-242200-
NORTHWEST PLATEAU/NORTHCENTRAL MOUNTAINS

CITY           SKY/WX    TMP DP  RH WIND       PRES   REMARKS
FARMINGTON     FAIR      61  26  26 W17G30    30.06F
LOS ALAMOS     FAIR      55  22  28 N14G24    30.08F
SANTA FE       PTSUNNY   60  31  33 NE15G25   30.04F
TAOS             N/A     46  28  49 NW3       30.10S
ANGEL FIRE     CLOUDY    38  29  71 W14       30.10R WCI  29

$$
NMZ402-403-502-505>509-242200-
WESTCENTRAL MOUNTAINS/SOUTHWEST MOUNTAINS

CITY           SKY/WX    TMP DP  RH WIND       PRES   REMARKS
GALLUP         FAIR      59  27  29 W18G26    30.16F
GRANTS         FAIR      62  21  20 NW24G35   30.14F
SILVER CITY    FAIR      65  24  21 W17G23    30.14S

$$
NMZ407-409-411-412-242200-
SOUTHERN DESERTS

CITY           SKY/WX    TMP DP  RH WIND       PRES   REMARKS
DEMING         FAIR      70  25  18 W14G21    30.09F
LAS CRUCES     FAIR      70  23  17 W23       30.08F
HOLLOMAN AFB   FAIR      68  22  17 W8        30.07F
ALAMOGORDO     FAIR      68  21  17 W12       30.05F
T OR C         FAIR      72  20  14 NW21G32   30.04F

$$
NMZ519>523-242200-
CENTRAL VALLEYS/CENTRAL HIGHLANDS

CITY           SKY/WX    TMP DP  RH WIND       PRES   REMARKS
ALBUQUERQUE    FAIR      65  22  19 N18G28    30.04F
DOUBLE EAGLE   MOSUNNY   64  25  22 NW22G33   30.06R
MORIARTY ARPT  FAIR      64  28  25 NW17G32   30.06S
CLINES CORNERS FAIR      57  24  28 NW25G33   30.05S
BELEN          FAIR      68  22  17 W20G31    30.03S
SOCORRO        FAIR      69  22  17 NW24G35   30.04F

$$
NMZ524>526-539-540-242200-
SOUTHCENTRAL MOUNTAINS

CITY           SKY/WX    TMP DP  RH WIND       PRES   REMARKS
RUIDOSO        FAIR      57  21  24 NW21G37   30.08S

$$
NMZ527>531-242200-
NORTHEAST HIGHLANDS/NORTHEAST PLAINS

CITY           SKY/WX    TMP DP  RH WIND       PRES   REMARKS
LAS VEGAS      CLOUDY    55  25  31 N20G30    30.02R
RATON          NOT AVBL
CLAYTON        CLOUDY    45  35  68 N44G54    29.92R

$$
NMZ532>537-242200-
EASTCENTRAL PLAINS

CITY           SKY/WX    TMP DP  RH WIND       PRES   REMARKS
TUCUMCARI      PTSUNNY   61  28  28 N38G49    29.96R
CANNON AFB     FAIR      60  29  30 NW36G51   29.93R
CLOVIS AIRPORT CLOUDY    59  30  33 NW33G40   29.94R

$$
NMZ028-029-538-242200-
SOUTHEAST PLAINS

CITY           SKY/WX    TMP DP  RH WIND       PRES   REMARKS
ROSWELL        CLOUDY    72  28  19 N22G29    29.94R
ARTESIA        FAIR      77  28  16 NW17G32   29.92S
CARLSBAD       FAIR      78  24  13 W25G36    29.90F
HOBBS          MOSUNNY   73  27  17 W25G37    29.91S


$$




USA.gov is the U.S. government's official web portal to all federal, state and local government web resources and services.